Location: River House Observatory
(37.8577°N, 76.3548°W)
Time: 22:30:43
(UTC-05:00)

Tiangong 1 - Visible Passes

Search period start: 17 February 2018 00:00
Search period end: 27 February 2018 00:00
Orbit: 249 x 272 km, 42.8° (Epoch: 17 February)

Date Brightness Start Highest point End Pass type
(mag) Time Alt. Az. Time Alt. Az. Time Alt. Az.
17 Feb 0.6 05:47:52 35° NW 05:48:36 58° NNE 05:50:52 10° E visible
18 Feb 0.1 05:43:04 54° WNW 05:43:29 83° SSW 05:45:47 10° ESE visible
19 Feb 0.7 05:38:06 44° SSW 05:38:06 44° SSW 05:40:18 10° SE visible
20 Feb 2.1 05:33:00 22° S 05:33:00 22° S 05:34:22 10° SSE visible
21 Feb 3.2 05:27:48 10° S 05:27:48 10° S 05:27:53 10° S visible
